This is the latest recevied weather packets stored in our database for station/object N8SHA. If no packets are shown the sender has not sent any weather packets the latest 10 day(s).
| Time | Temp. | Humidity | Pressure | Rain* | Wind** | Luminosity | Snow |
|---|---|---|---|---|---|---|---|
| 1777909005 | 21.67° C | 47% | 1003.3 hPa | 0 mm | - | 741 W/m² | - |
| 1777908703 | 21.67° C | 47% | 1003.4 hPa | 0 mm | - | 734 W/m² | - |
| 1777908399 | 20.56° C | 48% | 1003.4 hPa | 0 mm | - | 724 W/m² | - |
| 1777908096 | 20° C | 53% | 1003.3 hPa | 0 mm | - | 715 W/m² | - |
| 1777907792 | 20° C | 51% | 1003.4 hPa | 0 mm | - | 702 W/m² | - |
| 1777907487 | 19.44° C | 52% | 1003.7 hPa | 0 mm | - | 692 W/m² | - |
| 1777907184 | 20° C | 53% | 1003.7 hPa | 0 mm | - | 683 W/m² | - |
| 1777906881 | 18.89° C | 57% | 1003.7 hPa | 0 mm | - | 668 W/m² | - |
| 1777906579 | 18.89° C | 56% | 1003.8 hPa | 0 mm | - | 655 W/m² | - |
| 1777906274 | 18.89° C | 55% | 1003.9 hPa | 0 mm | - | 634 W/m² | - |
| 1777905971 | 18.33° C | 57% | 1003.7 hPa | 0 mm | - | 626 W/m² | - |
| 1777905667 | 17.78° C | 57% | 1003.9 hPa | 0 mm | - | 554 W/m² | - |
| 1777905364 | 17.22° C | 59% | 1003.8 hPa | 0 mm | - | 435 W/m² | - |
| 1777905062 | 17.22° C | 60% | 1003.7 hPa | 0 mm | - | 112 W/m² | - |
| 1777904759 | 16.67° C | 60% | 1003.9 hPa | 0 mm | - | 110 W/m² | - |
| 1777904456 | 16.67° C | 61% | 1003.8 hPa | 0 mm | - | 240 W/m² | - |
| 1777904153 | 16.11° C | 63% | 1003.9 hPa | 0 mm | - | 69 W/m² | - |
| 1777903850 | 16.11° C | 63% | 1003.9 hPa | 0 mm | - | 68 W/m² | - |
| 1777903546 | 15.56° C | 64% | 1003.9 hPa | 0 mm | - | 66 W/m² | - |
| 1777903243 | 15° C | 65% | 1003.9 hPa | 0 mm | - | 65 W/m² | - |
| 1777902939 | 15° C | 65% | 1003.9 hPa | 0 mm | - | 72 W/m² | - |
| 1777902636 | 15° C | 66% | 1004.1 hPa | 0 mm | - | 64 W/m² | - |
| 1777902333 | 14.44° C | 67% | 1004.1 hPa | 0 mm | - | 63 W/m² | - |
| 1777902030 | 13.89° C | 67% | 1004 hPa | 0 mm | - | 62 W/m² | - |
| 1777901728 | 13.89° C | 68% | 1004.1 hPa | 0 mm | - | 60 W/m² | - |
* Rain latest hour (hover to see other rain measurements)
** Current wind speed in m/s (hover to see current wind gust speed)